EDT,Max TemperatureF,Mean TemperatureF,Min TemperatureF,Max Dew PointF,MeanDew PointF,Min DewpointF,Max Humidity, Mean Humidity, Min Humidity, Max Sea Level PressureIn, Mean Sea Level PressureIn, Min Sea Level PressureIn, Max VisibilityMiles, Mean VisibilityMiles, Min VisibilityMiles, Max Wind SpeedMPH, Mean Wind SpeedMPH, Max Gust SpeedMPH,PrecipitationIn, CloudCover, Events, WindDirDegrees
2012-3-1,,,,,,,,,,,,,,,,,,,,,,
2012-3-2,78,73,68,68,54,43,100,53,28,29.97,29.87,29.81,10,9,1,16,9,21,0.00,5,Rain-Thunderstorm,213
2012-3-3,51,50,48,52,48,41,100,91,71,29.83,29.78,29.74,10,8,2,15,7,22,0.00,7,Rain-Thunderstorm,264
2012-3-4,59,50,41,46,9,-35,100,34,4,30.12,30.02,29.85,10,10,10,18,5,29,0.00,1,Rain,305
2012-3-5,68,52,35,37,20,-22,100,50,4,30.35,30.27,30.20,10,10,10,15,3,23,0.00,0,,299
2012-3-6,68,52,35,37,16,-9,56,30,5,30.53,30.46,30.41,10,10,10,13,3,21,0.00,0,,99
2012-3-7,71,60,50,52,38,27,100,49,19,30.47,30.41,30.34,10,10,10,12,5,,0.00,3,,107
2012-3-8,78,64,51,59,44,36,100,43,21,30.33,30.26,30.18,10,9,3,10,3,,0.00,3,,179
2012-3-9,64,60,57,64,54,48,100,75,59,30.25,30.19,30.14,10,6,0,10,2,,0.00,6,Fog-Rain,330
2012-3-10,69,56,44,32,19,3,61,27,7,30.37,30.30,30.25,10,10,10,14,4,22,0.00,2,,65
2012-3-11,69,60,51,50,40,30,59,46,38,30.40,30.34,30.28,10,10,10,12,6,,0.00,7,Rain,86
2012-3-12,73,66,59,48,46,45,63,51,38,30.33,30.30,30.22,10,10,7,10,6,18,0.00,7,,139
2012-3-13,78,69,60,63,52,45,100,54,30,30.29,30.24,30.18,10,8,1,7,2,,0.00,4,Rain-Thunderstorm,239
2012-3-14,80,74,68,64,48,36,88,41,20,30.29,30.23,30.17,10,7,0,7,1,,0.00,2,Fog,268
2012-3-15,82,75,68,64,39,28,88,27,14,30.30,30.24,30.16,10,8,4,7,1,,0.00,1,,169
2012-3-16,82,70,59,64,42,28,100,34,14,30.27,30.21,30.12,10,9,4,9,1,,0.00,1,,246
2012-3-17,82,70,57,63,39,23,100,38,12,30.27,30.22,30.16,10,9,5,6,1,,0.00,1,,191
2012-3-18,84,73,62,63,38,27,100,29,12,30.29,30.22,30.14,10,9,2,6,1,,0.00,0,,137
2012-3-19,82,70,59,61,47,32,100,50,16,30.21,30.15,30.08,10,10,5,8,1,16,0.00,0,,152
2012-3-20,82,71,60,64,41,30,100,38,15,30.16,30.09,30.03,10,8,4,13,3,21,0.00,1,,136
2012-3-21,80,70,60,64,47,36,100,48,20,30.16,30.12,30.07,10,10,5,12,3,17,0.00,2,,126
2012-3-22,82,70,59,68,52,43,100,53,25,30.18,30.13,30.05,10,8,2,10,2,,0.00,3,Rain,155
2012-3-23,73,68,64,70,58,54,100,62,50,30.12,30.09,30.02,10,7,1,9,1,17,0.00,5,Rain-Thunderstorm,193
2012-3-24,78,73,68,66,46,34,94,40,21,30.00,29.93,29.83,10,9,4,12,2,18,0.00,5,,267
2012-3-25,73,60,48,50,34,19,100,45,14,29.97,29.92,29.87,10,10,10,13,4,22,0.00,0,,331
2012-3-26,80,66,51,52,35,19,100,39,11,30.04,29.98,29.95,10,10,10,8,1,,0.00,0,,344
2012-3-27,82,70,59,55,26,7,88,20,6,30.18,30.10,30.03,10,8,2,8,1,,0.00,0,,156
2012-3-28,80,66,53,63,44,28,100,45,15,30.23,30.15,30.06,10,9,0,7,2,,0.00,2,Fog,212
2012-3-29,80,68,55,64,34,16,100,32,9,30.10,30.04,29.95,10,7,0,8,1,,0.00,2,Fog,212
2012-3-30,77,66,55,70,52,45,100,61,38,30.05,30.00,29.92,10,6,0,8,1,,0.00,6,Fog-Rain-Thunderstorm,192
2012-3-31,71,66,62,66,53,48,100,57,46,29.97,29.92,29.86,10,8,2,8,2,,0.00,5,Rain-Thunderstorm,265